This is the latest recevied weather packets stored in our database for station/object KC9DRE. If no packets are shown the sender has not sent any weather packets the latest 10 day(s).
| Time | Temp. | Humidity | Pressure | Rain* | Wind** | Luminosity | Snow |
|---|---|---|---|---|---|---|---|
| 1787966131 | 17.78° C | 91% | 1020.3 hPa | 0 mm | - | 0 W/m² | - |
| 1787965830 | 18.33° C | 91% | 1020.2 hPa | 0 mm | - | 0 W/m² | - |
| 1787965525 | 18.33° C | 90% | 1020 hPa | 0 mm | - | 0 W/m² | - |
| 1787965221 | 18.33° C | 89% | 1019.9 hPa | 0 mm | - | 0 W/m² | - |
| 1787964915 | 18.89° C | 88% | 1019.9 hPa | 0 mm | - | 0 W/m² | - |
| 1787964610 | 18.89° C | 87% | 1019.9 hPa | 0 mm | - | 0 W/m² | - |
| 1787964310 | 19.44° C | 86% | 1019.7 hPa | 0 mm | - | 0 W/m² | - |
| 1787964009 | 19.44° C | 85% | 1019.9 hPa | 0 mm | - | 0 W/m² | - |
| 1787963704 | 20° C | 84% | 1019.7 hPa | 0 mm | - | 0 W/m² | - |
| 1787963404 | 20.56° C | 82% | 1019.4 hPa | 0 mm | - | 1 W/m² | - |
| 1787963100 | 20.56° C | 80% | 1019.6 hPa | 0 mm | - | 2 W/m² | - |
| 1787962799 | 21.11° C | 79% | 1019.4 hPa | 0 mm | - | 3 W/m² | - |
| 1787962498 | 21.67° C | 78% | 1019.5 hPa | 0 mm | - | 6 W/m² | - |
| 1787962196 | 22.22° C | 76% | 1019.4 hPa | 0 mm | - | 9 W/m² | - |
| 1787961891 | 22.78° C | 74% | 1019.6 hPa | 0 mm | - | 12 W/m² | - |
| 1787961589 | 23.33° C | 72% | 1019.3 hPa | 0 mm | - | 15 W/m² | - |
| 1787961285 | 23.89° C | 70% | 1019.3 hPa | 0 mm | - | 18 W/m² | - |
| 1787960985 | 23.89° C | 68% | 1019.3 hPa | 0 mm | - | 22 W/m² | - |
| 1787960680 | 24.44° C | 66% | 1019.3 hPa | 0 mm | - | 25 W/m² | - |
| 1787960378 | 25° C | 63% | 1019.2 hPa | 0 mm | - | 28 W/m² | - |
| 1787960073 | 25.56° C | 62% | 1019.1 hPa | 0 mm | - | 30 W/m² | - |
| 1787959768 | 26.11° C | 55% | 1019.2 hPa | 0 mm | - | 32 W/m² | - |
| 1787959463 | 26.11° C | 57% | 1019.1 hPa | 0 mm | - | 35 W/m² | - |
| 1787959158 | 26.11° C | 53% | 1019.1 hPa | 0 mm | - | 37 W/m² | - |
| 1787958853 | 26.67° C | 53% | 1019.1 hPa | 0 mm | - | 39 W/m² | - |
* Rain latest hour (hover to see other rain measurements)
** Current wind speed in m/s (hover to see current wind gust speed)